Location: C�mpuri de-Sus
(45.9500°N, 22.5500°E)
Time: 13:34:03
(UTC+00:00)

Cosmos 2333 - Pass Details

Date: 24 October 2021
Orbit: 829 x 866 km, 70.9° (Epoch: 07 December)

Event Time Altitude Azimuth Distance (km) Brightness Sun altitude
Rises 17:48:32 0° 200° (SSW) 3,367 7.5 -25.0°
Reaches altitude 10° 17:50:57 10° 199° (SSW) 2,442 6.7 -25.4°
Maximum altitude 17:56:33 79° 115° (ESE) 861 4.0 -26.4°
Enters shadow 17:56:49 77° 78° (ENE) 869 4.0 -26.4°
